Regional Weather Roundup
Issued by NWS Sioux Falls, SD

Home | Current Version | Previous Version | Graphics & Text | Print | Product List | Glossary On
Versions: 1 2 3 4 5 6 7 8 9 10 11 12 13 14 15 16 17 18 19 20 21 22 23 24 25 26 27 28 29 30 31 32 33 34 35 36 37 38 39 40 41 42 43 44 45 46 47 48 49 50
000
ASUS43 KFSD 220802
RWRFSD

WEATHER ROUNDUP FOR SE SOUTH DAKOTA/SW MINNESOTA/NW IOWA
NATIONAL WEATHER SERVICE SIOUX FALLS SD
300 AM CDT FRI MAY 22 2015

NOTE: "FAIR" INDICATES FEW OR NO CLOUDS BELOW 12,000 FEET WITH NO
SIGNIFICANT WEATHER AND OR OBSTRUCTIONS TO VISIBILITY.


SDZ038>040-050-052>070-220900-
SOUTHEAST SOUTH DAKOTA

CITY           SKY/WX    TMP DP  RH WIND       PRES   REMARKS
BROOKINGS      CLEAR     46  37  71 CALM      30.18F
CHAMBERLAIN    NOT AVBL
HURON          CLEAR     45  41  86 CALM      30.16R
MADISON        FAIR      50  36  57 CALM      30.17S
MITCHELL       CLEAR     51  40  65 SW6       30.17S
SIOUX FALLS    CLEAR     47  40  76 CALM      30.17R
WINNER         FAIR      52  34  50 SW9       30.16F
YANKTON        CLEAR     48  39  71 CALM      30.18S
$$

MNZ071-072-080-081-089-090-097-098-220900-
SOUTHWEST MINNESOTA

CITY           SKY/WX    TMP DP  RH WIND       PRES   REMARKS
FAIRMONT       CLEAR     48  30  49 NW5       30.14R
JACKSON        CLEAR     46  32  57 NW5       30.16R
LUVERNE        CLEAR     46  41  81 CALM      30.17F
MARSHALL       CLEAR     46  30  53 W7        30.15S
MONTEVIDEO     CLEAR     50  37  62 NW5       30.16S
REDWOOD FALLS  CLEAR     50  36  58 CALM      30.14S
TRACY          CLEAR     54  33  45 W5        30.16S
WORTHINGTON    CLEAR     46  28  49 W3        30.17S
$$

IAZ001>003-012>014-020>022-031-032-NEZ013-014-SDZ071-220900-
NORTHWEST IOWA

CITY           SKY/WX    TMP DP  RH WIND       PRES   REMARKS
DENISON        CLEAR     50  43  76 SW3       30.18R
ESTHERVILLE    CLEAR     46  32  58 NW8       30.15R
SIOUX CITY     CLEAR     52  37  56 NW5       30.19R
SPENCER        CLEAR     43  38  82 W5        30.17R
$$

ABBREVIATIONS USED IN REMARKS
   TC - TEMPERATURE IN CELSIUS
  WCI - WIND CHILL INDEX
   HX - HEAT INDEX
  VSB - VISIBILITY




USA.gov is the U.S. government's official web portal to all federal, state and local government web resources and services.